TISXTNCM

Guest
Details From TISX - St Croix - Henry E Rohlsen
To TNCM - St Maarten - Princess Juliana Intl
Flight Number -
Tags generated
Created
Modified
Stats Distance 99 nm / 183 km
Max Altitude 6,900 ft / 2,103 m
Waypoints 3
Social Downloads 2
Likes 0
Share VATSIM

Download

Looking for another format? Having issues loading an existing format? Contact us
Advertisement - Login to hide

Notes

Basic altitude profile: - Ascent Rate: 2500ft/min - Ascent Speed: 360kts - Cruise Altitude: 30000ft - Cruise Speed: 480kts - Descent Rate: 3600ft/min - Descent Speed: 260kts Options: - Use NATs: yes - Use PACOTS: yes - Use low airways: no - Use high airways: yes

Route

TISX GOUDA TNCM

ID Type Via Altitude Latitude Longitude Leg Dist Tot Dist Heading (true) Name
O TISX APT - 0 ft / 0 m 17.70151˚ -64.80197˚ - 0 nm - St Croix - Henry E Rohlsen
GOUDA FIX - 6,900 ft / 2,103 m 17.93402˚ -63.66667˚ 66 nm 66 nm 78° / 78° -
O TNCM APT - 0 ft / 0 m 18.04089˚ -63.10897˚ 32 nm 98 nm 79° / 79° St Maarten - Princess Juliana Intl

Altitude Profile

Advertisement - Login to hide

TISX

Details ICAO TISX (STX)
Name St Croix - Henry E Rohlsen
Region USA (U.S. Virgin Islands)
Timezone America/St_Thomas (UTC-4.0)
Stats Elevation 65 ft / 20 m (AMSL)
Location 17.701505° -64.801975°
Runways 1
Magnetic Variation 13.695° W

METAR

TISX 270851Z AUTO 04004KT 10SM FEW021 BKN036 26/24 A2998 RMK AO2

Decode

TAF

TAF TISX 270520Z 2706/2806 06007KT P6SM SCT024 BKN029 FM271300 11013KT P6SM VCSH SCT025 SCT050 FM272300 07010KT P6SM VCSH FEW025 SCT050

Decode

Departure Runways

ID Width Length Bearing (true) Bearing (mag) Surface Threshold Offset Overrun Length
10 151 ft / 46 m 9,969 ft / 3,039 m 83.93° 97.62° Asphalt 0 ft / 0 m 200 ft / 61 m
28 151 ft / 46 m 9,969 ft / 3,039 m 263.93° 277.62° Asphalt 984 ft / 300 m 200 ft / 61 m

TNCM

Details ICAO TNCM (SXM)
Name St Maarten - Princess Juliana Intl
Region Caribbean Netherlands, Aruba, Curaçao, Sint Maarten
Timezone Unknown (UTC+0.0)
Stats Elevation 12 ft / 4 m (AMSL)
Location 18.040889° -63.108974°
Runways 1
Magnetic Variation 14.337° W

METAR

TNCM 270800Z 10006KT 070V140 9999 FEW019 26/24 Q1015 A2997

Decode

TAF

TNCM 270520Z 2706/2806 09006KT P6SM VCSH SCT015 BKN030 FM271300 10007KT P6SM VCSH FEW022

Decode

Destination Runways

ID Width Length Bearing (true) Bearing (mag) Surface Threshold Offset Overrun Length
10 148 ft / 45 m 7,464 ft / 2,275 m 81.43° 95.77° Asphalt 0 ft / 0 m 151 ft / 46 m
28 148 ft / 45 m 7,464 ft / 2,275 m 261.44° 275.78° Asphalt 397 ft / 121 m 0 ft / 0 m

Popular Alternatives